sat.trackr.live / text

‹ back to catalog

STARLINK-33868

NORAD 63703 · 2025-087G

PAYLOAD ACTIVE UNKNOWN

§ Identity

Operator
Country
US
Launch date
2025-04-28
Launch site
AFWTR
Launch vehicle
Mass (kg)
RCS (m²)

Purposes: comms

External: N2YO · Heavens-Above · Gunter

§ Orbital elements

Epoch: 2026-05-25T04:45:04.139712Z

Period
94.11 min
Inclination
53.1591°
Eccentricity
0.0001240
Mean motion
15.30200820 rev/d
Perigee alt
474.4 km
Apogee alt
476.1 km
Semi-major
6,853.3 km
B*
2.9248e-4
RAAN
224.1607°
Arg perigee
86.2826°
Mean anomaly
273.8317°
Rev number
6,091

§ Raw data

STARLINK-338681 63703U 25087G   26145.19796458  .00008313  00000+0  29248-3 0  99902 63703  53.1591 224.1607 0001240  86.2826 273.8317 15.30200820 60914

JSON: /api/v1/satellites/63703 · /tle

For live sub-satellite position, see the globe view (requires WebGL).

§ Visibility from observer

Set your observer location to see the next 7 days of passes ≥ 10°. The values pass through the URL so the page stays shareable.

No JS? Fill the form by hand. The geolocation button needs JavaScript.